TimeCDT,TemperatureF,Dew PointF,Humidity,Sea Level PressureIn,VisibilityMPH,Wind Direction,Wind SpeedMPH,Gust SpeedMPH,PrecipitationIn,Events,Conditions,WindDirDegrees,DateUTC
12:56 AM,77.0,73.0,88,29.99,10.0,SSW,5.8,-,N/A,,Clear,200,2013-06-27 05:56:00
1:56 AM,75.9,73.0,91,29.99,10.0,SW,4.6,-,N/A,,Clear,230,2013-06-27 06:56:00
2:56 AM,75.0,73.0,94,30.00,10.0,Calm,Calm,-,N/A,,Clear,0,2013-06-27 07:56:00
3:56 AM,75.0,73.0,94,29.99,10.0,WSW,4.6,-,N/A,,Clear,250,2013-06-27 08:56:00
4:56 AM,75.0,73.0,94,29.99,10.0,West,4.6,-,N/A,,Clear,260,2013-06-27 09:56:00
5:56 AM,75.0,73.0,94,29.99,10.0,WSW,3.5,-,N/A,,Clear,250,2013-06-27 10:56:00
6:56 AM,75.9,73.9,94,30.00,10.0,West,6.9,-,N/A,,Clear,280,2013-06-27 11:56:00
7:56 AM,80.1,75.0,85,29.99,10.0,WSW,6.9,-,N/A,,Clear,250,2013-06-27 12:56:00
8:56 AM,82.0,75.0,79,30.00,10.0,West,6.9,-,N/A,,Clear,270,2013-06-27 13:56:00
9:56 AM,82.9,75.0,77,30.00,10.0,WSW,4.6,-,N/A,,Clear,250,2013-06-27 14:56:00
10:56 AM,84.0,73.9,72,29.99,10.0,Variable,6.9,-,N/A,,Clear,0,2013-06-27 15:56:00
11:56 AM,87.1,75.0,67,29.98,10.0,WNW,4.6,-,N/A,,Mostly Cloudy,290,2013-06-27 16:56:00
12:56 PM,89.1,73.0,59,29.96,10.0,West,9.2,-,N/A,,Mostly Cloudy,270,2013-06-27 17:56:00
1:56 PM,91.0,73.0,55,29.94,10.0,WSW,10.4,16.1,N/A,,Partly Cloudy,250,2013-06-27 18:56:00
2:56 PM,91.9,72.0,52,29.92,10.0,West,8.1,-,N/A,,Partly Cloudy,280,2013-06-27 19:56:00
3:56 PM,90.0,72.0,55,29.91,10.0,Variable,4.6,-,N/A,,Partly Cloudy,0,2013-06-27 20:56:00
4:56 PM,91.0,73.0,55,29.89,10.0,WSW,8.1,-,N/A,,Partly Cloudy,250,2013-06-27 21:56:00
5:56 PM,90.0,72.0,55,29.88,10.0,West,9.2,-,N/A,,Partly Cloudy,260,2013-06-27 22:56:00
6:56 PM,89.1,73.0,59,29.88,10.0,West,5.8,-,N/A,,Clear,260,2013-06-27 23:56:00
7:56 PM,86.0,73.9,67,29.88,10.0,WSW,6.9,-,N/A,,Clear,240,2013-06-28 00:56:00
8:56 PM,84.0,73.9,72,29.90,10.0,Calm,Calm,-,N/A,,Clear,0,2013-06-28 01:56:00
9:56 PM,82.9,73.9,74,29.91,10.0,WSW,4.6,-,N/A,,Clear,250,2013-06-28 02:56:00
10:56 PM,82.0,73.9,76,29.90,10.0,WSW,5.8,-,N/A,,Clear,250,2013-06-28 03:56:00
11:56 PM,81.0,73.9,79,29.89,10.0,West,5.8,-,N/A,,Clear,270,2013-06-28 04:56:00